Hourly Weather Kyzylasker

Today, 29 October, Thursday

Time Temperature Precipitation Wind Pressure Humidity
00:00 -2°C° 0 mm 2 mps 756 mmHg 71%
01:00 -1°C° 0 mm 1 mps 756 mmHg 73%
02:00 -1°C° 0 mm 1 mps 756 mmHg 76%
03:00 -1°C° 0 mm 1 mps 757 mmHg 77%
04:00 -2°C° 0 mm 1 mps 757 mmHg 77%
05:00 -3°C° 0 mm 0 mps 757 mmHg 78%
06:00 -2°C° 0 mm 0 mps 757 mmHg 71%
07:00 0°C° 0 mm 0 mps 758 mmHg 65%
08:00 +1°C° 0 mm 0 mps 758 mmHg 59%
09:00 +4°C° 0 mm 1 mps 758 mmHg 51%
10:00 +6°C° 0 mm 1 mps 758 mmHg 43%
11:00 +9°C° 0 mm 1 mps 758 mmHg 35%
12:00 +10°C° 0 mm 1 mps 758 mmHg 32%
13:00 +11°C° 0 mm 1 mps 757 mmHg 30%
14:00 +13°C° 0 mm 1 mps 757 mmHg 27%
15:00 +12°C° 0 mm 1 mps 757 mmHg 29%
16:00 +10°C° 0 mm 2 mps 756 mmHg 31%
17:00 +9°C° 0 mm 2 mps 756 mmHg 33%
18:00 +7°C° 0 mm 2 mps 756 mmHg 37%
19:00 +6°C° 0 mm 2 mps 756 mmHg 40%
20:00 +4°C° 0 mm 3 mps 756 mmHg 44%
21:00 +4°C° 0 mm 2 mps 756 mmHg 46%
22:00 +4°C° 0 mm 2 mps 756 mmHg 48%
23:00 +3°C° 0 mm 2 mps 755 mmHg 50%

Tomorrow, 30 October, Friday

Time Temperature Precipitation Wind Pressure Humidity
00:00 +3°C° 0 mm 2 mps 755 mmHg 52%
01:00 +2°C° 0 mm 2 mps 754 mmHg 54%
02:00 +3°C° 0 mm 1 mps 754 mmHg 56%
03:00 +3°C° 0 mm 1 mps 754 mmHg 57%
04:00 +2°C° 0 mm 1 mps 754 mmHg 59%
05:00 +2°C° 0 mm 1 mps 753 mmHg 61%
06:00 +3°C° 0 mm 1 mps 753 mmHg 53%
07:00 +5°C° 0 mm 1 mps 753 mmHg 46%
08:00 +6°C° 0 mm 1 mps 753 mmHg 39%
09:00 +8°C° 0 mm 2 mps 753 mmHg 33%
10:00 +11°C° 0 mm 3 mps 753 mmHg 27%
11:00 +14°C° 0 mm 3 mps 753 mmHg 21%
12:00 +16°C° 0 mm 3 mps 752 mmHg 19%
13:00 +18°C° 0 mm 4 mps 752 mmHg 18%
14:00 +19°C° 0 mm 4 mps 751 mmHg 17%
15:00 +17°C° 0 mm 4 mps 751 mmHg 19%
16:00 +14°C° 0 mm 4 mps 751 mmHg 22%
17:00 +12°C° 0 mm 4 mps 751 mmHg 25%
18:00 +11°C° 0 mm 4 mps 751 mmHg 28%
19:00 +8°C° 0 mm 4 mps 751 mmHg 32%
20:00 +7°C° 0 mm 4 mps 751 mmHg 35%
21:00 +7°C° 0 mm 3 mps 750 mmHg 37%
22:00 +7°C° 0 mm 3 mps 750 mmHg 38%
23:00 +7°C° 0 mm 3 mps 750 mmHg 40%

Day after tomorrow, 31 October, Saturday

Time Temperature Precipitation Wind Pressure Humidity
00:00 +6°C° 0 mm 2 mps 750 mmHg 43%
01:00 +5°C° 0 mm 2 mps 749 mmHg 47%
02:00 +5°C° 0 mm 2 mps 749 mmHg 50%
03:00 +5°C° 0 mm 1 mps 749 mmHg 54%
04:00 +5°C° 0 mm 1 mps 749 mmHg 57%
05:00 +5°C° 0 mm 1 mps 749 mmHg 61%
06:00 +6°C° 0 mm 1 mps 749 mmHg 53%
07:00 +7°C° 0 mm 1 mps 749 mmHg 46%
08:00 +8°C° 0 mm 1 mps 749 mmHg 38%
09:00 +11°C° 0 mm 1 mps 749 mmHg 32%
10:00 +14°C° 0 mm 1 mps 749 mmHg 25%
11:00 +17°C° 0 mm 2 mps 749 mmHg 19%
12:00 +18°C° 0 mm 2 mps 749 mmHg 17%
13:00 +19°C° 0 mm 2 mps 748 mmHg 16%
14:00 +20°C° 0 mm 2 mps 748 mmHg 15%
15:00 +19°C° 0 mm 2 mps 748 mmHg 17%
16:00 +17°C° 0 mm 2 mps 748 mmHg 20%
17:00 +14°C° 0 mm 3 mps 748 mmHg 22%
18:00 +12°C° 0 mm 3 mps 748 mmHg 25%
19:00 +11°C° 0 mm 3 mps 748 mmHg 28%
20:00 +9°C° 0 mm 3 mps 748 mmHg 31%
21:00 +9°C° 0 mm 3 mps 747 mmHg 34%
22:00 +8°C° 0 mm 3 mps 747 mmHg 37%
23:00 +7°C° 0 mm 2 mps 747 mmHg 40%

1 November, Sunday

Time Temperature Precipitation Wind Pressure Humidity
00:00 +7°C° 0 mm 2 mps 747 mmHg 44%
01:00 +7°C° 0 mm 1 mps 747 mmHg 49%
02:00 +6°C° 0 mm 1 mps 747 mmHg 53%
03:00 +6°C° 0 mm 1 mps 747 mmHg 55%
04:00 +5°C° 0 mm 1 mps 747 mmHg 57%
05:00 +4°C° 0 mm 0 mps 747 mmHg 59%
06:00 +5°C° 0 mm 0 mps 747 mmHg 51%
07:00 +6°C° 0 mm 0 mps 747 mmHg 44%
08:00 +7°C° 0 mm 0 mps 747 mmHg 37%
09:00 +10°C° 0 mm 0 mps 747 mmHg 31%
10:00 +13°C° 0 mm 0 mps 747 mmHg 25%
11:00 +16°C° 0 mm 0 mps 747 mmHg 19%
12:00 +19°C° 0 mm 1 mps 747 mmHg 17%
13:00 +20°C° 0 mm 1 mps 746 mmHg 15%
14:00 +21°C° 0 mm 1 mps 746 mmHg 14%
15:00 +19°C° 0 mm 1 mps 746 mmHg 16%
16:00 +18°C° 0 mm 1 mps 746 mmHg 18%
17:00 +15°C° 0 mm 1 mps 745 mmHg 20%
18:00 +13°C° 0 mm 1 mps 745 mmHg 25%
19:00 +12°C° 0 mm 2 mps 745 mmHg 30%
20:00 +9°C° 0 mm 2 mps 746 mmHg 35%
21:00 +9°C° 0 mm 1 mps 745 mmHg 41%
22:00 +8°C° 0 mm 1 mps 745 mmHg 47%
23:00 +8°C° 0 mm 1 mps 745 mmHg 53%

2 November, Monday

Time Temperature Precipitation Wind Pressure Humidity
00:00 +7°C° 0 mm 1 mps 745 mmHg 53%
01:00 +7°C° 0 mm 1 mps 745 mmHg 53%
02:00 +7°C° 0 mm 1 mps 745 mmHg 53%
03:00 +7°C° 0 mm 1 mps 746 mmHg 53%
04:00 +6°C° 0 mm 1 mps 746 mmHg 52%
05:00 +6°C° 0 mm 1 mps 746 mmHg 52%
06:00 +7°C° 0 mm 1 mps 746 mmHg 45%
07:00 +8°C° 0 mm 1 mps 747 mmHg 39%
08:00 +9°C° 0 mm 1 mps 747 mmHg 32%
09:00 +12°C° 0 mm 1 mps 747 mmHg 27%
10:00 +15°C° 0 mm 1 mps 748 mmHg 22%
11:00 +19°C° 0 mm 1 mps 748 mmHg 17%
12:00 +20°C° 0 mm 1 mps 748 mmHg 16%
13:00 +20°C° 0 mm 2 mps 748 mmHg 14%
14:00 +21°C° 0 mm 2 mps 748 mmHg 13%
15:00 +19°C° 0 mm 2 mps 748 mmHg 15%
16:00 +17°C° 0 mm 3 mps 748 mmHg 17%
17:00 +16°C° 0 mm 3 mps 748 mmHg 19%
18:00 +13°C° 0 mm 3 mps 748 mmHg 22%
19:00 +12°C° 0 mm 2 mps 748 mmHg 26%
20:00 +10°C° 0 mm 2 mps 749 mmHg 29%
21:00 +9°C° 0 mm 2 mps 749 mmHg 32%
22:00 +8°C° 0 mm 2 mps 749 mmHg 36%
23:00 +8°C° 0 mm 2 mps 749 mmHg 39%

3 November, Tuesday

Time Temperature Precipitation Wind Pressure Humidity
00:00 +7°C° 0 mm 2 mps 749 mmHg 42%
01:00 +7°C° 0 mm 1 mps 749 mmHg 46%
02:00 +6°C° 0 mm 1 mps 749 mmHg 49%
03:00 +6°C° 0 mm 1 mps 749 mmHg 52%
04:00 +5°C° 0 mm 1 mps 749 mmHg 55%
05:00 +5°C° 0 mm 1 mps 749 mmHg 58%
06:00 +6°C° 0 mm 1 mps 749 mmHg 51%
07:00 +7°C° 0 mm 1 mps 750 mmHg 43%
08:00 +8°C° 0 mm 1 mps 750 mmHg 36%
09:00 +10°C° 0 mm 1 mps 750 mmHg 31%
10:00 +13°C° 0 mm 1 mps 751 mmHg 25%
11:00 +15°C° 0 mm 0 mps 751 mmHg 20%
12:00 +18°C° 0 mm 1 mps 751 mmHg 19%
13:00 +19°C° 0 mm 1 mps 751 mmHg 17%
14:00 +20°C° 0 mm 1 mps 751 mmHg 16%
15:00 +17°C° 0 mm 2 mps 751 mmHg 19%
16:00 +15°C° 0 mm 2 mps 751 mmHg 22%
17:00 +12°C° 0 mm 3 mps 751 mmHg 24%
18:00 +10°C° 0 mm 4 mps 751 mmHg 30%
19:00 +8°C° 0 mm 4 mps 751 mmHg 37%
20:00 +7°C° 0 mm 4 mps 751 mmHg 43%
21:00 +6°C° 0 mm 4 mps 751 mmHg 50%
22:00 +5°C° 0 mm 3 mps 751 mmHg 57%
23:00 +4°C° 0 mm 2 mps 751 mmHg 65%
Show more

We Need Your Consent

Meteoprog and our Service Providers may store and access personal data such as cookies, device identifiers or other similar technologies on your device and process such data to personalise content and ads, as well as provide social media features and to analyse the traffic.

  • Store and/or access information on your device

    Cookies, device identifiers or other information can be stored or accessed on your device for the purposes indicated above.

  • Personalised ads and content, ad and content measurement, audience insights, and products development

    Ads and content can be personalised based on a profile. More data can be added to better personalise ads and content. Ad and content performance can be measured. Insights about the audience who saw the ads and content can be derived. Such data can be used to develop or improve user’s experience, systems and software.

By clicking ‘I Agree’ you will allow the use of indicated cookies, device identifiers, web beacons or other similar technologies. Your settings can be changed in the browser on your device.

For certain purposes, legitimate interests may be relied on, rather than consent. You can read more about this in our Privacy and Cookie Policy.